Other Surface Observations
Issued by NWS

Home | Current Version | Previous Version | Text Only | Print | Product List | Glossary On
Versions: 1 2 3 4 5 6 7 8 9 10 11 12 13 14 15 16 17 18 19 20 21 22 23 24 25 26 27 28 29 30 31 32 33 34 35 36 37 38 39 40 41 42 43 44 45 46 47 48 49 50
000
SXUS52 KTAE 301206
OSOTAE
OSOTAE
North Florida/South Alabama/Southwest Georgia Weather Roundup
National Weather Service Tallahassee Florida
800 AM EDT SAT APR 30 2016

Note: "fair" indicates few or no clouds below 12,000 feet with no
significant weather and/or obstructions to visibility.

!FLZ017-115-028-034-025-301300
...North Florida...

CITY           SKY/WX    TMP DP  RH WIND       PRES   REMARKS
TALLAHASSEE    FOG       69  67  93 SE3       29.94R VSB 1/16
APALACHICOLA   CLOUDY    73  73 100 SE9       29.93S
PERRY          CLOUDY    71  71  97 CALM      29.96R FOG
CROSS CITY       N/A     71  69  93 CALM      29.95R
JACKSONVILLE   MOSUNNY   72  71  97 E5        29.98R FOG
$$

!FLZ112-006-005-002-011-301300
...Florida Panhandle...

CITY           SKY/WX    TMP DP  RH WIND       PRES   REMARKS
MARIANNA       MOSUNNY   69  69 100 S3        29.91R
BONIFAY        NOT AVBL
PANAMA CITY NW CLOUDY    71  70  96 E6        29.89S FOG
TYNDALL AFB    FOG       70  70 100 SE8       29.90F VSB 1
TYND DRONE APT LGT RAIN  70  71 100 SE7       29.91S VSB 1/2
DE FUNIAK SPR  CLOUDY    68  68 100 SE5       29.90S
EGLIN AFB      PTSUNNY   73  71  95 SE8       29.89R
DESTIN         CLOUDY    75  74  96 SE10      29.89R
HURLBURT       NOT AVBL
CRESTVIEW      CLOUDY    70  69  97 VRB3      29.91R FOG
PENSACOLA      CLOUDY    75  72  90 SE10      29.87R
$$

!ALZ063-066-301300
...South Alabama...

CITY           SKY/WX    TMP DP  RH WIND       PRES   REMARKS
DOTHAN         SUNNY     69  67  93 E6        29.94R
OZARK CAIRNS   CLOUDY    69  69 100 E2        29.90R
FT RUCKER HELI CLOUDY    68  65  90 CALM      29.90R
RUCKER HELI 3  FAIR      68  66  92 SE5       29.92R
RUCKER HELI 2  NOT AVBL
FLORALA APT    FOG       67  66  97 CALM      29.91R VSB 1/4
ANDALUSIA      CLOUDY    69  64  84 CALM      29.89S
TROY           CLOUDY    68  64  87 CALM      29.92R
EUFALA         FAIR      68  65  90 CALM      29.90R
MOBILE         CLOUDY    74  73  97 SE10      29.87R
$$

!GAZ120>161-301300
...Southwest and South Central Georgia...

CITY           SKY/WX    TMP DP  RH WIND       PRES   REMARKS
THOMASVILLE    FAIR      70  68  94 SE5       29.95R
BAINBRIDGE     CLOUDY    72  70  94 SE6       29.93R FOG
MOODY AFB      MOSUNNY   70  68  93 S3        29.95R
VALDOSTA       CLOUDY    71  71 100 S5        29.96R FOG
MOULTRIE       MOSUNNY   72  68  88 SE5       29.96R
BLAKELY        CLOUDY    68  66  94 CALM      29.93R FOG
ALBANY         CLOUDY    71  68  90 CALM      29.94R
TIFTON         FAIR      69  69 100 SE5       29.95R
FITZGERALD     FAIR      70  69  96 SE3       29.97R FOG
CORDELE        FAIR      71  70  95 CALM      29.95R
AMERICUS       FAIR      66  66 100 CALM      29.95S
HOMERVILLE     FAIR      70  70 100 CALM      29.97R
$$

!GMZ750-755-770-775-301300
...Coastal and Buoy Obs...

STATION/POSITION TIME  TEMP    WIND        PRES    VSBY  WAVE
                       AIR SEA DIR/SP/G                  HT/PER
                 (UTC) (F)     (DEG/KT/KT) (MB)    (MI)  (FT/S)
KEATON BEACH     1200   71      80/  5/  6 1013.9R
CEDAR KEY        1100   74     100/  8/  9 1014.2R
C TOWER          1200   73     130/ 10/ 11 1014.1R
APALACHICOLA BUO 1150   75 74  140/ 10/ 12 1013.5R         2/ 5
PANAMA CITY BUOY 1050   78 78  130/ 12/ 16 1012.2          2/ 5
MOBILE BUOY      1100   75 74  140/ 12/ 14 1010.3F
ORANGE BCH AL BU 1150   75 74  140/ 12/ 14 1010.3R         3/ 6
$$




USA.gov is the U.S. government's official web portal to all federal, state and local government web resources and services.